EW5196 Weather Reports


Display with metric or nautical units.
time (UTC)temp
F
wind
direction
speed
MPH
gust
MPH
rain 1hr
in
rain 24hr
in
rain mn
in
humidity
%
barometer
mb
20260904124903 80 140 0.0 2.0 0.00 0.00 0.00 85 1015.8
20260904124359 79 187 0.0 2.0 0.00 0.00 0.00 87 1015.8
20260904123854 79 155 1.0 2.0 0.00 0.00 0.00 88 1016.2
20260904123349 78 60 0.0 3.0 0.00 0.00 0.00 90 1015.9
20260904122845 78 154 0.0 1.0 0.00 0.00 0.00 91 1015.6
20260904122344 78 286 0.0 2.0 0.00 0.00 0.00 91 1015.8
20260904121839 77 68 0.0 2.0 0.00 0.00 0.00 91 1016.2
20260904121336 77 159 0.0 1.0 0.00 0.00 0.00 92 1016.3
20260904120832 76 189 0.0 3.0 0.00 0.00 0.00 95 1016.2
20260904120327 75 244 0.0 1.0 0.00 0.00 0.00 96 1016.2
20260904115822 75 154 0.0 0.0 0.00 0.00 0.00 97 1016.0
20260904115317 75 175 0.0 1.0 0.00 0.00 0.00 97 1016.0
20260904114818 75 110 0.0 2.0 0.00 0.00 0.00 97 1015.8
20260904114312 75 175 1.0 1.0 0.00 0.00 0.00 97 1015.9
20260904113807 74 67 0.0 0.0 0.00 0.00 0.00 98 1016.0
20260904113306 74 272 0.0 0.0 0.00 0.00 0.00 98 1015.6
20260904112801 74 154 0.0 0.0 0.00 0.00 0.00 98 1015.9
20260904112257 74 119 0.0 2.0 0.00 0.00 0.00 98 1016.1
20260904111752 74 242 0.0 0.0 0.00 0.00 0.00 98 1015.9
20260904111248 73 147 0.0 1.0 0.00 0.00 0.00 98 1016.0
20260904110744 73 24 0.0 1.0 0.00 0.00 0.00 98 1015.9
20260904110243 73 72 1.0 2.0 0.00 0.00 0.00 97 1015.9
20260904105738 73 147 0.0 1.0 0.00 0.00 0.00 97 1016.0
20260904105232 73 79 1.0 2.0 0.00 0.00 0.00 97 1015.9
20260904104728 73 128 2.0 2.0 0.00 0.00 0.00 97 1015.8
20260904104223 73 184 1.0 2.0 0.00 0.00 0.00 97 1015.7
20260904103720 73 151 1.0 2.0 0.00 0.00 0.00 97 1015.8
20260904103215 74 153 1.0 2.0 0.00 0.00 0.00 97 1015.7
20260904102711 74 161 1.0 2.0 0.00 0.00 0.00 97 1016.0
20260904102206 74 173 1.0 2.0 0.00 0.00 0.00 97 1015.7
20260904101702 74 153 0.0 2.0 0.00 0.00 0.00 97 1015.7
20260904101158 74 149 0.0 1.0 0.00 0.00 0.00 97 1015.7
20260904100654 74 172 0.0 0.0 0.00 0.00 0.00 96 1015.8
20260904100149 74 179 1.0 2.0 0.00 0.00 0.00 96 1015.7
20260904095649 74 155 1.0 1.0 0.00 0.00 0.00 96 1015.8
20260904095149 74 143 0.0 0.0 0.00 0.00 0.00 96 1015.9
20260904094644 74 143 0.0 0.0 0.00 0.00 0.00 96 1015.7
20260904094139 74 143 0.0 1.0 0.00 0.00 0.00 96 1015.8
20260904093636 74 153 1.0 2.0 0.00 0.00 0.00 96 1015.8
20260904093135 75 158 1.0 2.0 0.00 0.00 0.00 96 1015.9
20260904092632 75 148 0.0 2.0 0.00 0.00 0.00 95 1016.0
20260904092127 75 142 1.0 1.0 0.00 0.00 0.00 95 1016.0
20260904091623 75 154 0.0 1.0 0.00 0.00 0.00 95 1016.0
20260904091123 75 130 2.0 2.0 0.00 0.00 0.00 95 1016.1
20260904090618 75 146 0.0 1.0 0.00 0.00 0.00 94 1016.0
20260904090114 75 149 1.0 2.0 0.00 0.00 0.00 94 1016.0
20260904085609 75 176 0.0 2.0 0.00 0.00 0.00 94 1016.0
20260904085108 76 209 0.0 2.0 0.00 0.00 0.00 94 1016.2
20260904084604 76 227 1.0 1.0 0.00 0.00 0.00 94 1016.1
20260904084100 76 242 1.0 1.0 0.00 0.00 0.00 93 1016.1
20260904083556 76 159 0.0 1.0 0.00 0.00 0.00 93 1015.9
20260904083052 76 159 2.0 2.0 0.00 0.00 0.00 93 1015.8
20260904082547 76 148 0.0 1.0 0.00 0.00 0.00 93 1015.8
20260904082042 76 159 0.0 0.0 0.00 0.00 0.00 93 1015.9
20260904081537 76 153 0.0 2.0 0.00 0.00 0.00 92 1015.7
20260904081032 77 85 0.0 0.0 0.00 0.00 0.00 92 1015.4
20260904080528 77 121 2.0 2.0 0.00 0.00 0.00 91 1015.4
20260904080024 77 247 1.0 1.0 0.00 0.00 0.00 91 1015.6
20260904075520 77 92 0.0 0.0 0.00 0.00 0.00 91 1015.9
20260904075015 77 143 1.0 2.0 0.00 0.00 0.00 89 1015.7
20260904074514 77 217 0.0 1.0 0.00 0.00 0.00 89 1015.6
20260904074009 77 186 0.0 1.0 0.00 0.00 0.00 89 1015.7
20260904073504 77 193 2.0 3.0 0.00 0.00 0.00 90 1015.5
20260904073001 77 5 2.0 2.0 0.00 0.00 0.00 91 1015.3
20260904072456 78 131 1.0 2.0 0.00 0.00 0.00 90 1015.4
20260904071956 78 163 0.0 1.0 0.00 0.00 0.00 90 1015.4
20260904071451 78 132 0.0 1.0 0.00 0.00 0.00 88 1015.3
20260904070946 78 143 0.0 2.0 0.00 0.00 0.00 85 1015.4
20260904070444 79 159 0.0 0.0 0.00 0.00 0.00 86 1015.4
20260904065939 79 180 1.0 2.0 0.00 0.00 0.00 84 1015.3
20260904065435 79 158 2.0 2.0 0.00 0.00 0.00 83 1015.2
20260904064930 80 184 0.0 0.0 0.00 0.00 0.00 83 1015.5
20260904064427 80 200 2.0 2.0 0.00 0.00 0.00 82 1015.5
20260904063921 81 119 0.0 1.0 0.00 0.00 0.00 83 1015.5
20260904063418 81 145 0.0 2.0 0.00 0.00 0.00 78 1015.5
20260904062913 80 259 2.0 4.0 0.00 0.00 0.00 84 1015.7
20260904062409 80 147 0.0 1.0 0.00 0.00 0.00 84 1015.5
20260904061905 81 172 0.0 1.0 0.00 0.00 0.00 84 1015.8
20260904061401 82 247 1.0 5.0 0.00 0.00 0.00 81 1016.0
20260904060857 81 165 0.0 3.0 0.00 0.00 0.00 83 1016.2
20260904060352 81 252 1.0 5.0 0.00 0.00 0.00 84 1016.4
20260904055848 81 225 2.0 4.0 0.00 0.00 0.00 85 1016.2
20260904055342 81 239 0.0 3.0 0.00 0.00 0.00 85 1016.3
20260904054838 80 158 4.0 6.0 0.00 0.00 0.00 87 1016.8
20260904054334 79 225 0.0 1.0 0.00 0.00 0.00 87 1015.4
20260904053829 79 132 0.0 0.0 0.00 0.00 0.00 88 1015.9
20260904053329 79 184 0.0 2.0 0.00 0.00 0.00 89 1015.5
20260904052825 79 80 0.0 0.0 0.00 0.00 0.00 91 1015.8
20260904052321 79 147 0.0 0.0 0.00 0.00 0.00 90 1015.6
20260904051817 79 154 0.0 0.0 0.00 0.00 0.00 90 1015.7
20260904051313 79 172 0.0 1.0 0.00 0.00 0.00 89 1015.8
20260904050807 79 143 0.0 1.0 0.00 0.00 0.00 88 1015.6
20260904050305 79 140 0.0 1.0 0.00 0.00 0.00 89 1015.9
20260904045804 79 134 0.0 1.0 0.00 0.00 0.00 91 1015.9
20260904045259 79 155 0.0 1.0 0.00 0.00 0.00 91 1016.1
20260904044754 79 173 1.0 2.0 0.00 0.00 0.00 92 1016.0
20260904044251 79 177 1.0 2.0 0.00 0.00 0.00 93 1015.9
20260904043746 79 172 0.0 1.0 0.00 0.00 0.00 93 1015.9
20260904043243 79 194 0.0 1.0 0.00 0.00 0.00 93 1015.9
20260904042737 79 184 0.0 1.0 0.00 0.00 0.00 93 1015.6
20260904042234 79 153 1.0 2.0 0.00 0.00 0.00 94 1015.8
20260904041733 79 161 0.0 1.0 0.00 0.00 0.00 94 1015.7
20260904041230 79 172 0.0 1.0 0.00 0.00 0.00 94 1016.0
20260904040725 79 165 1.0 1.0 0.00 0.00 0.00 93 1016.0
20260904040221 80 165 1.0 1.0 0.00 0.00 0.00 93 1015.9
20260904035717 80 163 1.0 2.0 0.00 0.00 0.00 93 1015.9
20260904035212 79 270 0.0 2.0 0.00 0.00 0.00 94 1016.0
20260904034710 79 192 0.0 1.0 0.00 0.00 0.00 94 1016.1
20260904034207 79 147 0.0 0.0 0.00 0.00 0.00 94 1016.0
20260904033703 79 165 0.0 1.0 0.00 0.00 0.00 94 1016.2
20260904033159 79 160 0.0 1.0 0.00 0.00 0.00 93 1016.3
20260904032655 79 154 0.0 0.0 0.00 0.00 0.00 93 1016.5
20260904032154 79 158 1.0 1.0 0.00 0.00 0.00 93 1016.5
20260904031648 79 156 0.0 0.0 0.00 0.00 0.00 93 1016.5
20260904031143 79 156 0.0 1.0 0.00 0.00 0.00 93 1016.4
20260904030639 80 133 1.0 1.0 0.00 0.00 0.00 93 1016.2
20260904030134 80 177 0.0 1.0 0.00 0.00 0.00 92 1016.3
20260904025630 80 165 0.0 0.0 0.00 0.00 0.00 92 1016.2
20260904025125 80 168 0.0 1.0 0.00 0.00 0.00 92 1016.4
20260904024620 80 232 0.0 1.0 0.00 0.00 0.00 92 1016.1
20260904024116 80 225 0.0 1.0 0.00 0.00 0.00 93 1016.3
20260904023612 80 236 1.0 1.0 0.00 0.00 0.00 93 1016.1
20260904023107 80 164 0.0 1.0 0.00 0.00 0.00 92 1016.0
20260904022602 80 172 0.0 1.0 0.00 0.00 0.00 92 1016.0
20260904022059 80 147 0.0 0.0 0.00 0.00 0.00 92 1016.1
20260904021554 80 203 0.0 1.0 0.00 0.00 0.00 92 1016.0
20260904021049 80 126 1.0 1.0 0.00 0.00 0.00 93 1016.0
20260904020544 80 160 0.0 2.0 0.00 0.00 0.00 93 1016.0
20260904020039 80 133 0.0 1.0 0.00 0.00 0.00 92 1016.0
20260904015533 80 147 0.0 1.0 0.00 0.00 0.00 92 1016.1
20260904015032 80 172 0.0 0.0 0.00 0.00 0.00 92 1016.1
20260904014526 80 134 0.0 0.0 0.00 0.00 0.00 91 1016.5
20260904014022 80 154 0.0 0.0 0.00 0.00 0.00 91 1016.2
20260904013518 80 154 0.0 0.0 0.00 0.00 0.00 91 1016.4
20260904013015 80 160 0.0 1.0 0.00 0.00 0.00 91 1016.4
20260904012514 80 154 0.0 0.0 0.00 0.00 0.00 91 1016.4
20260904012009 81 141 1.0 1.0 0.00 0.00 0.00 90 1016.5
20260904011503 81 159 0.0 0.0 0.00 0.00 0.00 90 1016.4
20260904010958 81 187 0.0 0.0 0.00 0.00 0.00 90 1016.5
20260904010455 81 154 0.0 0.0 0.00 0.00 0.00 89 1016.7
20260904005955 81 159 0.0 1.0 0.00 0.00 0.00 88 1016.8
20260904005450 82 135 1.0 1.0 0.00 0.00 0.00 88 1016.8
20260904004945 82 187 0.0 1.0 0.00 0.00 0.00 88 1016.7
20260904004442 82 211 0.0 2.0 0.00 0.00 0.00 88 1016.7
20260904003941 82 186 0.0 1.0 0.00 0.00 0.00 88 1016.8
20260904003437 82 160 0.0 1.0 0.00 0.00 0.00 88 1016.7
20260904002932 82 202 0.0 1.0 0.00 0.00 0.00 88 1016.7
20260904002429 83 182 0.0 1.0 0.00 0.00 0.00 87 1016.6
20260904001927 83 184 0.0 0.0 0.00 0.00 0.00 87 1016.3
20260904001423 83 159 0.0 1.0 0.00 0.00 0.00 86 1016.2
20260904000918 83 172 0.0 1.0 0.00 0.00 0.00 86 1016.4
20260904000418 83 198 0.0 1.0 0.00 0.00 0.00 86 1016.3
20260903235913 83 203 1.0 1.0 0.00 0.00 0.00 86 1016.1
20260903235409 84 165 0.0 0.0 0.00 0.00 0.00 86 1015.9
20260903234908 84 157 0.0 1.0 0.00 0.00 0.00 85 1016.0
20260903234404 84 172 0.0 1.0 0.00 0.00 0.00 85 1015.6
20260903233900 85 169 0.0 1.0 0.00 0.00 0.00 84 1015.5
20260903233356 85 215 0.0 2.0 0.00 0.00 0.00 83 1015.9
20260903232855 85 219 1.0 2.0 0.00 0.00 0.00 83 1015.8
20260903232351 86 188 0.0 1.0 0.00 0.00 0.00 81 1015.9
20260903231850 87 172 0.0 1.0 0.00 0.00 0.00 80 1015.9
20260903231345 87 247 0.0 1.0 0.00 0.00 0.00 78 1015.9
20260903230841 87 227 1.0 2.0 0.00 0.00 0.00 76 1015.7
20260903230336 87 229 1.0 2.0 0.00 0.00 0.00 77 1015.5
20260903225832 87 259 1.0 1.0 0.00 0.00 0.00 78 1015.3
20260903225328 87 223 1.0 1.0 0.00 0.00 0.00 78 1015.6
20260903224824 87 225 0.0 1.0 0.00 0.00 0.00 77 1015.5
20260903224320 88 187 0.0 1.0 0.00 0.00 0.00 77 1015.6
20260903223816 87 225 0.0 0.0 0.00 0.00 0.00 75 1015.4
20260903223314 88 260 0.0 0.0 0.00 0.00 0.00 74 1015.3
20260903222809 88 187 0.0 1.0 0.00 0.00 0.00 75 1015.5
20260903222308 88 190 0.0 1.0 0.00 0.00 0.00 74 1015.5
20260903221803 89 247 0.0 1.0 0.00 0.00 0.00 69 1015.3
20260903221302 89 265 0.0 1.0 0.00 0.00 0.00 70 1015.5
20260903220801 90 230 0.0 1.0 0.00 0.00 0.00 69 1015.4
20260903220255 90 222 0.0 0.0 0.00 0.00 0.00 66 1015.7
20260903215753 91 172 0.0 0.0 0.00 0.00 0.00 64 1015.8
20260903215250 91 247 0.0 0.0 0.00 0.00 0.00 62 1015.8
20260903214748 91 260 0.0 0.0 0.00 0.00 0.00 62 1015.8
20260903214244 92 172 0.0 0.0 0.00 0.00 0.00 60 1015.8
20260903213738 92 184 0.0 0.0 0.00 0.00 0.00 60 1015.8
20260903213234 92 171 0.0 3.0 0.00 0.00 0.00 57 1015.6
20260903212730 93 246 0.0 1.0 0.00 0.00 0.00 57 1015.5
20260903212227 93 231 0.0 0.0 0.00 0.00 0.00 57 1015.3
20260903211725 94 260 0.0 0.0 0.00 0.00 0.00 56 1015.6
20260903211222 94 184 0.0 1.0 0.00 0.00 0.00 53 1015.7
20260903210718 95 317 0.0 1.0 0.00 0.00 0.00 53 1015.7
20260903210213 96 306 0.0 1.0 0.00 0.00 0.00 52 1016.0
20260903205713 96 290 1.0 3.0 0.00 0.00 0.00 51 1016.1
20260903205212 96 241 0.0 2.0 0.00 0.00 0.00 54 1015.9
20260903204707 95 185 0.0 2.0 0.00 0.00 0.00 55 1016.0
20260903204204 96 301 5.0 5.0 0.00 0.00 0.00 52 1016.1
20260903203659 96 137 0.0 2.0 0.00 0.00 0.00 55 1015.7
20260903203154 96 245 3.0 4.0 0.00 0.00 0.00 53 1016.0
20260903202648 96 339 1.0 3.0 0.00 0.00 0.00 54 1016.2
20260903202144 96 137 1.0 3.0 0.00 0.00 0.00 55 1016.0
20260903201638 96 247 3.0 4.0 0.00 0.00 0.00 52 1016.3
20260903201137 96 299 0.0 3.0 0.00 0.00 0.00 56 1016.3
20260903200633 95 177 1.0 2.0 0.00 0.00 0.00 54 1016.3
20260903200128 95 276 1.0 2.0 0.00 0.00 0.00 54 1016.4
20260903195624 96 354 0.0 4.0 0.00 0.00 0.00 55 1016.5
20260903195119 96 154 0.0 0.0 0.00 0.00 0.00 54 1016.4
20260903194615 96 132 0.0 0.0 0.00 0.00 0.00 52 1016.3
20260903194114 96 338 0.0 1.0 0.00 0.00 0.00 52 1016.8
20260903193610 97 249 1.0 4.0 0.00 0.00 0.00 49 1016.7
20260903193106 98 252 2.0 4.0 0.00 0.00 0.00 48 1016.8
20260903192602 97 262 0.0 2.0 0.00 0.00 0.00 51 1016.9
20260903192057 98 301 1.0 2.0 0.00 0.00 0.00 49 1016.9
20260903191553 98 220 0.0 3.0 0.00 0.00 0.00 48 1016.8
20260903191048 97 230 1.0 2.0 0.00 0.00 0.00 48 1016.9
20260903190547 97 161 0.0 2.0 0.00 0.00 0.00 49 1017.0
20260903190047 96 260 3.0 3.0 0.00 0.00 0.00 53 1017.1
20260903185543 96 254 3.0 3.0 0.00 0.00 0.00 52 1017.2
20260903185038 97 286 2.0 5.0 0.00 0.00 0.00 52 1017.3
20260903184534 97 287 2.0 2.0 0.00 0.00 0.00 52 1017.3
20260903184029 97 235 0.0 4.0 0.00 0.00 0.00 52 1017.2
20260903183528 96 137 0.0 2.0 0.00 0.00 0.00 51 1017.6
20260903183024 95 222 2.0 5.0 0.00 0.00 0.00 53 1017.6
20260903182522 95 254 2.0 4.0 0.00 0.00 0.00 55 1017.6
20260903182019 95 258 4.0 6.0 0.00 0.00 0.00 53 1017.7
20260903181512 95 261 3.0 3.0 0.00 0.00 0.00 56 1017.8
20260903181011 95 278 3.0 5.0 0.00 0.00 0.00 54 1017.7
20260903180507 95 210 1.0 4.0 0.00 0.00 0.00 55 1017.8
20260903180006 95 249 3.0 3.0 0.00 0.00 0.00 55 1017.9
20260903175505 94 345 0.0 0.0 0.00 0.00 0.00 58 1018.2
20260903175004 93 277 1.0 4.0 0.00 0.00 0.00 58 1018.1
20260903174459 94 237 1.0 3.0 0.00 0.00 0.00 56 1018.2
20260903173954 93 286 0.0 4.0 0.00 0.00 0.00 58 1018.2
20260903173449 94 153 0.0 4.0 0.00 0.00 0.00 57 1018.1
20260903172945 93 235 3.0 4.0 0.00 0.00 0.00 58 1018.3
20260903172440 93 170 0.0 3.0 0.00 0.00 0.00 59 1018.3
20260903171935 92 144 3.0 4.0 0.00 0.00 0.00 60 1018.2
20260903171431 92 247 3.0 4.0 0.00 0.00 0.00 61 1018.4
20260903170931 92 217 2.0 3.0 0.00 0.00 0.00 61 1018.3
20260903170425 91 167 2.0 3.0 0.00 0.00 0.00 61 1018.3
20260903165924 91 148 2.0 3.0 0.00 0.00 0.00 62 1018.2
20260903165419 91 248 5.0 6.0 0.00 0.00 0.00 62 1018.6
20260903164919 91 279 2.0 3.0 0.00 0.00 0.00 63 1018.5
20260903164414 91 242 5.0 5.0 0.00 0.00 0.00 62 1018.8
20260903163914 91 253 4.0 5.0 0.00 0.00 0.00 64 1018.6
20260903163410 91 263 1.0 2.0 0.00 0.00 0.00 65 1018.6
20260903162906 90 236 3.0 3.0 0.00 0.00 0.00 66 1018.6
20260903162402 90 336 0.0 1.0 0.00 0.00 0.00 68 1018.8
20260903161857 89 224 1.0 2.0 0.00 0.00 0.00 68 1018.8
20260903161352 89 310 2.0 5.0 0.00 0.00 0.00 68 1018.9
20260903160849 89 212 3.0 5.0 0.00 0.00 0.00 67 1019.0
20260903160347 89 273 1.0 2.0 0.00 0.00 0.00 69 1018.8
20260903155846 89 48 1.0 6.0 0.00 0.00 0.00 69 1018.9
20260903155341 88 229 2.0 2.0 0.00 0.00 0.00 70 1018.9
20260903154836 89 146 3.0 4.0 0.00 0.00 0.00 71 1019.1
20260903154333 89 156 2.0 4.0 0.00 0.00 0.00 67 1019.1
20260903153827 89 271 2.0 2.0 0.00 0.00 0.00 67 1018.8
20260903153323 89 239 2.0 6.0 0.00 0.00 0.00 68 1019.0
20260903152820 89 284 1.0 5.0 0.00 0.00 0.00 69 1019.1
20260903152315 88 3 0.0 2.0 0.00 0.00 0.00 69 1019.0
20260903151810 88 235 2.0 3.0 0.00 0.00 0.00 70 1019.0
20260903151306 87 175 0.0 4.0 0.00 0.00 0.00 70 1019.0
20260903150805 87 278 2.0 4.0 0.00 0.00 0.00 70 1018.8
20260903150300 87 154 2.0 3.0 0.00 0.00 0.00 72 1019.1
20260903145755 87 236 1.0 5.0 0.00 0.00 0.00 72 1018.9
20260903145250 87 168 1.0 2.0 0.00 0.00 0.00 73 1019.1
20260903144749 87 22 0.0 4.0 0.00 0.00 0.00 72 1019.0
20260903144245 87 29 1.0 3.0 0.00 0.00 0.00 72 1018.9
20260903143740 87 299 3.0 4.0 0.00 0.00 0.00 72 1018.6
20260903143237 86 233 2.0 3.0 0.00 0.00 0.00 73 1018.8
20260903142732 86 209 2.0 5.0 0.00 0.00 0.00 73 1018.8
20260903142228 86 156 2.0 3.0 0.00 0.00 0.00 72 1018.7
20260903141724 86 237 3.0 5.0 0.00 0.00 0.00 72 1018.8
20260903141219 86 253 2.0 3.0 0.00 0.00 0.00 72 1018.5
20260903140714 85 207 2.0 2.0 0.00 0.00 0.00 73 1018.4
20260903140209 85 260 0.0 2.0 0.00 0.00 0.00 74 1018.4
20260903135705 85 134 0.0 2.0 0.00 0.00 0.00 74 1018.5
20260903135200 84 339 0.0 2.0 0.00 0.00 0.00 78 1018.3
20260903134658 83 113 1.0 2.0 0.00 0.00 0.00 79 1018.4
20260903134155 82 147 0.0 1.0 0.00 0.00 0.00 79 1018.3
20260903133652 82 190 1.0 1.0 0.00 0.00 0.00 81 1018.3
20260903133148 82 154 0.0 0.0 0.00 0.00 0.00 84 1018.5
20260903132643 81 154 0.0 2.0 0.00 0.00 0.00 83 1018.5
20260903132143 81 279 0.0 1.0 0.00 0.00 0.00 84 1018.7
20260903131637 80 159 0.0 0.0 0.00 0.00 0.00 86 1018.6
20260903131137 79 345 0.0 1.0 0.00 0.00 0.00 87 1018.8
20260903130632 79 159 0.0 2.0 0.00 0.00 0.00 89 1018.9
20260903130126 78 49 0.0 0.0 0.00 0.00 0.00 90 1018.7
20260903125624 77 184 0.0 0.0 0.00 0.00 0.00 94 1018.9